Tracking 31027 objects as of 19-Jul-2025
HD Live streaming from Space Station
objects crossing your sky now

CZ-4C DEB

Track CZ-4C DEB now!
10-day predictions


NORAD ID: 54702
Int'l Code: 2022-169D
Perigee: 786.0 km
Apogee: 799.5 km
Inclination: 60.0 °
Period: 100.6 minutes
Semi major axis: 7163 km
RCS: Unknown
Launch date: December 12, 2022
Source: People's Republic of China (PRC)
Launch site: Jiuquan Satellite Launch Center, China (JSC)

Note: This is SATELLITE DEBRIS
Your satellite tracking list
STARLINK-5088
Track 1 satellite(s)




NASA's NSSDC Master Catalog

Two Line Element Set (TLE):
1 54702U 22169D   25199.85137606  .00000238  00000-0  13984-3 0  9991
2 54702  59.9960 254.9026 0009419   7.2514 352.8657 14.31839729135842
Source of the keplerian elements: AFSPC